Regional Weather Roundup
Issued by NWS

Home | Current Version | Previous Version | Graphics & Text | Print | Product List | Glossary On
Versions: 1 2 3 4 5 6 7 8 9 10 11 12 13 14 15 16 17 18 19 20 21 22 23 24 25 26 27 28 29 30 31 32 33 34 35 36 37 38 39 40 41 42 43 44 45 46 47 48 49 50
000
ASUS43 KBIS 292202
RWRND

NORTH DAKOTA REGIONAL WEATHER ROUNDUP
NATIONAL WEATHER SERVICE BISMARCK ND
500 PM CDT WED MAR 29 2017

NOTE: "FAIR" INDICATES FEW OR NO CLOUDS BELOW 12,000 FEET WITH NO
SIGNIFICANT WEATHER AND/OR OBSTRUCTIONS TO VISIBILITY.


NDZ001>003-009>011-017-292300-
NORTHWEST NORTH DAKOTA

CITY           SKY/WX    TMP DP  RH WIND       PRES   REMARKS
WILLISTON      FAIR      62  29  28 W13       29.89F
MINOT          CLOUDY    61  38  42 S13       29.89F
MINOT AFB      CLOUDY    55  42  63 SW8       29.89F
$$

NDZ018>021-031>035-040>046-292300-
SOUTHWEST NORTH DAKOTA

CITY           SKY/WX    TMP DP  RH WIND       PRES   REMARKS
BISMARCK       FAIR      63  37  38 S16       29.96F
DICKINSON      PTSUNNY   60  30  32 S13       29.89F
GARRISON         N/A     57  39  51 S8        29.90F
HETTINGER ARPT PTSUNNY   61  28  28 W7        29.95F
$$

NDZ004>008-012>016-024-026-027-054-292300-
NORTHEAST NORTH DAKOTA

CITY           SKY/WX    TMP DP  RH WIND       PRES   REMARKS
GRAND FORKS    CLOUDY    60  46  59 S15       30.02F
GRND FRKS AFB  CLOUDY    61  42  49 S15       30.02F
DEVILS LAKE    CLOUDY    54  38  54 SW13      29.98F
$$

NDZ022-023-025-028>030-036>039-047>053-292300-
SOUTHEAST NORTH DAKOTA

CITY           SKY/WX    TMP DP  RH WIND       PRES   REMARKS
FARGO          CLOUDY    60  39  45 S18       30.06F
JAMESTOWN      FAIR      61  33  35 S18G24    29.99F
$$





USA.gov is the U.S. government's official web portal to all federal, state and local government web resources and services.